Погода в Красном Корсакове

Россия / Орловская область     53°10′29″N   37°13′00″E
темп.,
°C
ветер,
м/с
пор.,
м/с
влажн.,
%
обл.,
%
осадки,
мм/ч
давл.,
гПа
погр.,
м
28 ноября, вс
вс2800:00+3ю61398100 0.0 1003435
03:00+4ю61398100 0.0 1003380
06:00+4юз51097100 0.1 1004408
09:00+3ююз49944 0.1 1006225
12:00+4юз4108611 0.0 1007413
15:00+4ююз258667 0.0 1008148
18:00+2ююв348880 0.0 100954
21:00+2ююв4897100 0.0 1009159
29 ноября, пн
пн2900:00+4ююв51094100 0.0 1009357
03:00+4юв51393100 0.0 1007311
06:00+4вюв41097100 0.0 1005225
09:00+4вюв41199100 0.4 1003266
12:00+5вюв41098100 0.7 1000396
15:00+4юв3799100 1.0 997201
18:00+6ююв41199100 0.1 994343
21:00+6в51099100 1.4 989297
30 ноября, вт
вт3000:00+7в5998100 6.5 981263
03:00+8ююз81495100 11.2 975615
06:00+7ююз81497100 3.8 973677
09:00+6зюз101495100 6.1 9761175
12:000зюз142396100 4.1 9841145
15:00+1зюз121985100 5.1 9861217
18:000юз111782100 0.1 9881250
21:000юз9167899 0.1 9881225
1 декабря, ср
ср100:00−2юз71393100 0.1 9891128
03:00−2зюз91486100 0.3 991941
06:00−3з91494100 0.6 9921043
09:00−3з81381100 1.1 9931022
12:00−2з81181100 0.1 9951100
15:00−3з71181100 0.1 9961087
18:00−4з6118568 0.0 998881
21:00−4з5108884 0.1 999724
2 декабря, чт
чт200:00−5з5109181 0.0 1001565
03:00−5юз4992100 0.0 1002392
06:00−4ююз41189100 0.0 1002437
09:00−3ю71595100 0.1 1000526
12:00−3ю71596100 0.2 1003611
15:00−1ююз81597100 1.3 1002693
18:00+1юз71598100 0.8 1003604
21:00+1юз7149299 0.8 1004491